アンダーソン-リニア彗星

148P/Anderson-LINEAR (2001)

English version
Home page
Total 6,336 html files since Dec. 4, 1995
Updated on May 27, 2001

---------------------------------------------------------------------

・ プロフィール

符号 148P/2000 SO253
再発見日 2000年9月24日
再発見光度 19.8等
再発見者 Lincoln Laboratory Near-Earth Asteroid Research project

・ 軌道要素

   The following improved orbital elements by Kenji Muraoka, are
  from 67 observations 1963 to 2001, perturbations by 9 Plantes,
  Moon and 5 minor planets were taken into account.
   The mean residual is +/- 0.91 arc seconds.

      Epoch  =  2001 May  11.0  TT       JDT = 2452040.5
          T  =  2001 May   1.95566       +/- 0.00124 (m.e.) TT
       Peri. =    6.71949                +/- 0.00059
       Node  =   89.80246                +/- 0.00069   (2000.0)
       Incl. =    3.68233                +/- 0.00008
          q  =    1.6936181              +/- 0.0000145 AU
          e  =    0.5394845              +/- 0.0000036
          a  =    3.6776571              +/- 0.0000115 AU
          n  =    0.13974852             +/- 0.00000066
          P  =    7.053                  +/- 0.0000332  years

・ 星図

・ 光度変化

        m1 = 14.0 + 5 logΔ + 10.0 log r

---------------------------------------------------------------------

軌道要素は村岡健治氏の計算によるものです。
星図は StellaNavigator Ver.2.0 for Windows (アストロアーツ 編著 / アスキー出版局刊) で作成したものです。
光度グラフはComet for Windowsで作成したものです。

---------------------------------------------------------------------

Copyright(C) 1995-2008 Seiichi Yoshida (comet@aerith.net). All rights reserved.